This is the latest recevied weather packets stored in our database for station/object KE5VBO-1. If no packets are shown the sender has not sent any weather packets the latest 10 day(s).
| Time | Temp. | Humidity | Pressure | Rain* | Wind** | Luminosity | Snow |
|---|---|---|---|---|---|---|---|
| 1777693527 | 13.33° C | 1% | 1017.9 hPa | 0 mm | - | - | - |
| 1777692668 | 13.89° C | 1% | 1017.8 hPa | 0 mm | - | - | - |
| 1777691735 | 13.89° C | 1% | 1017.6 hPa | 0 mm | - | - | - |
| 1777690882 | 14.44° C | 1% | 1017.4 hPa | 0 mm | - | - | - |
| 1777689928 | 14.44° C | 1% | 1017.4 hPa | 0 mm | - | - | - |
| 1777689008 | 15° C | 1% | 1017.4 hPa | 0 mm | - | - | - |
| 1777688147 | 15° C | 1% | 1017 hPa | 0 mm | - | - | - |
| 1777687209 | 15° C | 1% | 1016.8 hPa | 0 mm | - | - | - |
| 1777686345 | 15.56° C | 1% | 1016.4 hPa | 0 mm | - | - | - |
| 1777685420 | 15.56° C | 1% | 1016.1 hPa | 0 mm | - | - | - |
| 1777684561 | 15.56° C | 1% | 1015.9 hPa | 0 mm | - | - | - |
| 1777683616 | 15.56° C | 1% | 1015.6 hPa | 0 mm | - | - | - |
| 1777682763 | 16.11° C | 1% | 1015.4 hPa | 0 mm | - | - | - |
| 1777681819 | 16.11° C | 8% | 1015.1 hPa | 0 mm | - | - | - |
| 1777680951 | 16.67° C | 15% | 1014.8 hPa | 0 mm | - | - | - |
| 1777680018 | 16.67° C | 17% | 1014.7 hPa | 0 mm | - | - | - |
| 1777679155 | 16.67° C | 18% | 1014.6 hPa | 0 mm | - | - | - |
| 1777678220 | 17.22° C | 34% | 1014.3 hPa | 0 mm | - | - | - |
| 1777677359 | 17.22° C | 35% | 1014.3 hPa | 0 mm | - | - | - |
| 1777676417 | 17.78° C | 32% | 1014.2 hPa | 0 mm | - | - | - |
| 1777675545 | 17.78° C | 51% | 1013.9 hPa | 0 mm | - | - | - |
| 1777674612 | 17.78° C | 56% | 1014 hPa | 0 mm | - | - | - |
| 1777673752 | 17.78° C | 51% | 1014 hPa | 0 mm | - | - | - |
| 1777672829 | 18.33° C | 54% | 1013.8 hPa | 0 mm | - | - | - |
| 1777671963 | 18.33° C | 57% | 1013.7 hPa | 0 mm | - | - | - |
* Rain latest hour (hover to see other rain measurements)
** Current wind speed in m/s (hover to see current wind gust speed)